Weather History for Andalusia, AL

Change the Weather History Date:

Monday, February 10, 2014

  Actual Average (KCEW) Record (KCEW)
Temperature  
Mean Temperature 57 °F -  
Max Temperature 68 °F 62 °F 79 °F (1999)
Min Temperature 46 °F 37 °F 20 °F (1979)
Degree Days  
Heating Degree Days 8    
Growing Degree Days 7 (Base 50)    
Moisture  
Dew Point 50 °F    
Average Humidity 81    
Maximum Humidity 88    
Minimum Humidity 63    
Precipitation  
Precipitation 0.10 in - - ()
Sea Level Pressure  
Sea Level Pressure 30.09 in    
Wind  
Wind Speed 2 mph (North)    
Max Wind Speed 9 mph    
Max Gust Speed -    
Visibility 5 miles    
Events Rain    
Averages and records for this station are not official NWS values.
T = Trace of Precipitation, MM = Missing Value Source: NWS Daily Summary

Daily Weather History Graph

Daily Weather History Graph

Search for Another Location

Airport:

Trip Planner

Search our weather history database for the weather conditions in past years. The results will help you decide how hot, cold, wet, or windy it might be!

Date:

Astronomy

Feb. 10, 2014 Rise Set
Actual Time 6:31 AM CST 5:28 PM CST
Civil Twilight 6:06 AM CST 5:53 PM CST
Nautical Twilight 5:37 AM CST 6:22 PM CST
Astronomical Twilight 5:09 AM CST 6:50 PM CST
Moon 2:03 PM CST (2/10) 3:17 AM CST (2/10)
Length of Visible Light 11h 47m
Length of Day
10h 57m
Waxing Gibbous, 85% of the Moon is Illuminated
Feb 10
Waxing Gibbous
Feb 14
Full
Feb 22
Last Quarter
Mar 1
New
Mar 8
First Quarter

Hourly Weather History & Observations

Time (CST) Temp. Dew Point Humidity Pressure Visibility Wind Dir Wind Speed Gust Speed Precip Events Conditions
12:56 AM 48.9 °F 44.1 °F 83% 30.09 in 8.0 mi Calm Calm - N/A   Clear
1:56 AM 48.0 °F 43.0 °F 83% 30.08 in 3.0 mi Calm Calm - N/A   Haze
2:06 AM 48.2 °F 44.6 °F 87% 30.08 in 2.0 mi Calm Calm - N/A   Clear
2:26 AM 46.4 °F 42.8 °F 87% 30.07 in 4.0 mi Calm Calm - N/A   Clear
2:56 AM 46.9 °F 42.1 °F 83% 30.07 in 5.0 mi Calm Calm - N/A   Haze
3:56 AM 46.9 °F 43.0 °F 86% 30.06 in 4.0 mi Calm Calm - N/A   Partly Cloudy
4:04 AM 46.4 °F 42.8 °F 87% 30.07 in 3.0 mi Calm Calm - N/A   Scattered Clouds
4:24 AM 46.4 °F 42.8 °F 87% 30.08 in 2.5 mi Calm Calm - N/A   Mostly Cloudy
4:35 AM 46.4 °F 42.8 °F 87% 30.09 in 3.0 mi Calm Calm - N/A   Mostly Cloudy
4:56 AM 48.0 °F 44.1 °F 86% 30.09 in 3.0 mi Calm Calm - N/A   Overcast
5:03 AM 48.2 °F 44.6 °F 87% 30.10 in 3.0 mi Calm Calm - N/A   Overcast
5:56 AM 50.0 °F 45.0 °F 83% 30.09 in 4.0 mi Calm Calm - N/A   Haze
6:48 AM 51.8 °F 46.4 °F 82% 30.10 in 2.5 mi Calm Calm - N/A   Haze
6:56 AM 50.0 °F 46.0 °F 86% 30.10 in 2.0 mi Calm Calm - N/A   Mostly Cloudy
7:05 AM 50.0 °F 46.4 °F 87% 30.11 in 2.0 mi Calm Calm - N/A   Mostly Cloudy
7:40 AM 53.6 °F 48.2 °F 82% 30.12 in 3.0 mi Calm Calm - N/A   Haze
7:56 AM 54.0 °F 48.9 °F 83% 30.11 in 4.0 mi Calm Calm - N/A   Haze
8:35 AM 57.2 °F 51.8 °F 82% 30.14 in 4.0 mi NNW 3.5 mph - N/A   Haze
8:47 AM 57.2 °F 51.8 °F 82% 30.14 in 5.0 mi NNW 3.5 mph - N/A   Haze
8:56 AM 57.9 °F 52.0 °F 81% 30.14 in 6.0 mi NNW 4.6 mph - N/A   Haze
9:07 AM 60.8 °F 53.6 °F 77% 30.14 in 4.0 mi WNW 3.5 mph - N/A   Haze
9:56 AM 62.1 °F 55.0 °F 78% 30.14 in 6.0 mi WNW 6.9 mph - N/A   Haze
10:51 AM 66.2 °F 55.4 °F 68% 30.13 in 7.0 mi WNW 6.9 mph - N/A   Mostly Cloudy
10:56 AM 66.0 °F 55.0 °F 68% 30.12 in 8.0 mi Variable 5.8 mph - N/A   Mostly Cloudy
11:28 AM 66.2 °F 55.4 °F 68% 30.11 in 9.0 mi Variable 5.8 mph - N/A   Overcast
11:56 AM 68.0 °F 55.0 °F 63% 30.09 in 10.0 mi West 6.9 mph - N/A   Overcast
12:56 PM 66.9 °F 54.0 °F 63% 30.07 in 10.0 mi NW 5.8 mph - N/A   Overcast
1:04 PM 66.2 °F 53.6 °F 64% 30.07 in 10.0 mi NW 5.8 mph - N/A   Overcast
1:34 PM 66.2 °F 53.6 °F 64% 30.07 in 10.0 mi WNW 5.8 mph - N/A   Overcast
1:56 PM 66.0 °F 54.0 °F 65% 30.06 in 10.0 mi West 4.6 mph - N/A   Overcast
2:56 PM 66.9 °F 54.0 °F 63% 30.04 in 10.0 mi SW 3.5 mph - N/A   Overcast
3:56 PM 66.9 °F 54.0 °F 63% 30.04 in 10.0 mi NW 3.5 mph - N/A   Overcast
4:56 PM 64.9 °F 54.0 °F 68% 30.04 in 10.0 mi North 4.6 mph - N/A   Overcast
5:39 PM 60.8 °F 55.4 °F 82% 30.07 in 9.0 mi NNE 9.2 mph - N/A   Overcast
5:53 PM 60.8 °F 53.6 °F 77% 30.07 in 9.0 mi NNE 8.1 mph - 0.00 in Rain Light Rain
5:56 PM 60.1 °F 54.0 °F 80% 30.06 in 9.0 mi NE 4.6 mph - 0.00 in Rain Light Rain
6:33 PM 59.0 °F 53.6 °F 82% 30.09 in 2.5 mi North 6.9 mph - 0.03 in Rain Rain
6:46 PM 57.2 °F 53.6 °F 88% 30.09 in 4.0 mi North 8.1 mph - 0.04 in Rain Light Rain
6:56 PM 57.0 °F 52.0 °F 83% 30.09 in 3.0 mi NNE 8.1 mph - 0.05 in Rain Light Rain
7:42 PM 55.4 °F 51.8 °F 88% 30.10 in 5.0 mi NE 5.8 mph - 0.00 in Rain Light Rain
7:56 PM 55.0 °F 51.1 °F 86% 30.10 in 5.0 mi NNE 6.9 mph - 0.00 in Rain Light Rain
8:21 PM 55.4 °F 50.0 °F 82% 30.10 in 4.0 mi NE 4.6 mph - 0.01 in Rain Light Rain
8:38 PM 53.6 °F 50.0 °F 88% 30.10 in 2.5 mi NE 5.8 mph - 0.01 in Rain Light Rain
8:56 PM 54.0 °F 50.0 °F 86% 30.10 in 2.0 mi NE 4.6 mph - 0.02 in Rain Light Rain
9:00 PM 53.6 °F 50.0 °F 88% 30.11 in 1.8 mi NE 3.5 mph - 0.00 in Rain Light Rain
9:07 PM 53.6 °F 50.0 °F 88% 30.10 in 1.8 mi NE 3.5 mph - 0.00 in Rain Light Rain
9:23 PM 53.6 °F 50.0 °F 88% 30.11 in 2.5 mi Calm Calm - 0.01 in Rain Light Rain
9:36 PM 53.6 °F 50.0 °F 88% 30.11 in 1.8 mi NE 4.6 mph - 0.01 in Rain Light Rain
9:45 PM 53.6 °F 48.2 °F 82% 30.10 in 2.0 mi ENE 4.6 mph - 0.02 in Rain Light Rain
9:56 PM 53.1 °F 48.9 °F 86% 30.10 in 2.0 mi East 3.5 mph - 0.02 in Rain Light Rain
10:15 PM 53.6 °F 48.2 °F 82% 30.10 in 4.0 mi East 6.9 mph - 0.00 in Rain Light Rain
10:56 PM 52.0 °F 48.0 °F 86% 30.10 in 4.0 mi NE 4.6 mph - 0.00 in   Overcast
11:09 PM 51.8 °F 48.2 °F 88% 30.10 in 4.0 mi NE 3.5 mph - 0.00 in Rain Light Rain
11:40 PM 51.8 °F 48.2 °F 88% 30.09 in 2.5 mi Calm Calm - 0.00 in Rain Light Rain
11:56 PM 52.0 °F 48.0 °F 86% 30.08 in 2.5 mi East 3.5 mph - 0.01 in Rain Light Rain